Time,TemperatureF,DewpointF,PressureIn,WindDirection,WindDirectionDegrees,WindSpeedMPH,WindSpeedGustMPH,Humidity,HourlyPrecipIn,Conditions,Clouds,dailyrainin,SoftwareType,DateUTC
2013-05-04 00:02:00,47.4,43.7,29.98,NNW,330,9.0,10.0,87,0.00,,,0.00,Wunderground v.1.15,2013-05-04 05:02:00,
2013-05-04 00:08:00,47.3,43.6,29.98,NE,43,7.0,10.0,87,0.00,,,0.00,Wunderground v.1.15,2013-05-04 05:08:00,
2013-05-04 00:13:00,47.2,43.8,29.98,WNW,302,6.0,9.0,88,0.00,,,0.00,Wunderground v.1.15,2013-05-04 05:13:00,
2013-05-04 00:19:00,47.1,43.7,29.98,NNW,329,7.0,12.0,88,0.00,,,0.00,Wunderground v.1.15,2013-05-04 05:19:00,
2013-05-04 00:25:00,47.0,43.6,29.98,North,352,6.0,7.0,88,0.00,,,0.00,Wunderground v.1.15,2013-05-04 05:25:00,
2013-05-04 00:31:00,46.9,43.5,29.97,WNW,288,10.0,10.0,88,0.00,,,0.00,Wunderground v.1.15,2013-05-04 05:31:00,
2013-05-04 00:37:00,46.8,43.7,29.98,North,349,4.0,11.0,89,0.00,,,0.00,Wunderground v.1.15,2013-05-04 05:37:00,
2013-05-04 00:43:00,46.7,43.6,29.98,NW,318,4.0,7.0,89,0.00,,,0.00,Wunderground v.1.15,2013-05-04 05:43:00,
2013-05-04 00:49:00,46.6,43.5,29.98,NNW,346,9.0,10.0,89,0.00,,,0.00,Wunderground v.1.15,2013-05-04 05:49:00,
2013-05-04 00:54:00,46.5,43.4,29.97,NNW,338,9.0,11.0,89,0.00,,,0.00,Wunderground v.1.15,2013-05-04 05:54:00,
2013-05-04 01:00:00,46.4,43.3,29.97,NW,318,10.0,10.0,89,0.00,,,0.00,Wunderground v.1.15,2013-05-04 06:00:00,
2013-05-04 01:06:00,46.4,43.3,29.97,NNW,338,3.0,10.0,89,0.00,,,0.00,Wunderground v.1.15,2013-05-04 06:06:00,
2013-05-04 01:12:00,46.3,43.2,29.97,North,8,7.0,7.0,89,0.00,,,0.00,Wunderground v.1.15,2013-05-04 06:12:00,
2013-05-04 01:18:00,46.2,43.1,29.97,NNW,331,6.0,8.0,89,0.00,,,0.00,Wunderground v.1.15,2013-05-04 06:18:00,
2013-05-04 01:24:00,46.1,43.0,29.97,NNW,332,8.0,8.0,89,0.00,,,0.00,Wunderground v.1.15,2013-05-04 06:24:00,
2013-05-04 01:30:00,46.1,43.0,29.97,NNW,338,5.0,6.0,89,0.00,,,0.00,Wunderground v.1.15,2013-05-04 06:30:00,
2013-05-04 01:35:00,46.0,43.2,29.97,NW,319,3.0,6.0,90,0.00,,,0.00,Wunderground v.1.15,2013-05-04 06:35:00,
2013-05-04 01:41:00,45.9,42.8,29.97,NNW,330,6.0,7.0,89,0.00,,,0.00,Wunderground v.1.15,2013-05-04 06:41:00,
2013-05-04 01:47:00,45.8,43.0,29.97,North,356,4.0,9.0,90,0.00,,,0.00,Wunderground v.1.15,2013-05-04 06:47:00,
2013-05-04 01:53:00,45.7,42.9,29.97,NW,311,4.0,7.0,90,0.00,,,0.00,Wunderground v.1.15,2013-05-04 06:53:00,
2013-05-04 01:59:00,45.6,42.8,29.96,NNW,328,10.0,10.0,90,0.00,,,0.00,Wunderground v.1.15,2013-05-04 06:59:00,
2013-05-04 02:04:00,45.6,42.8,29.96,NNW,340,8.0,13.0,90,0.00,,,0.00,Wunderground v.1.15,2013-05-04 07:04:00,
2013-05-04 02:09:00,45.5,42.7,29.96,NW,306,7.0,13.0,90,0.00,,,0.00,Wunderground v.1.15,2013-05-04 07:09:00,
2013-05-04 02:14:00,45.4,42.6,29.96,NNW,333,11.0,13.0,90,0.00,,,0.00,Wunderground v.1.15,2013-05-04 07:14:00,
2013-05-04 02:19:00,45.3,42.5,29.96,North,352,4.0,13.0,90,0.00,,,0.00,Wunderground v.1.15,2013-05-04 07:19:00,
2013-05-04 02:24:00,45.3,42.8,29.96,North,350,7.0,10.0,91,0.00,,,0.00,Wunderground v.1.15,2013-05-04 07:24:00,
2013-05-04 02:29:00,45.2,42.7,29.95,NNW,340,7.0,11.0,91,0.00,,,0.00,Wunderground v.1.15,2013-05-04 07:29:00,
2013-05-04 02:34:00,45.1,42.6,29.95,NNW,342,6.0,10.0,91,0.00,,,0.00,Wunderground v.1.15,2013-05-04 07:34:00,
2013-05-04 02:39:00,45.1,42.6,29.95,NNW,338,7.0,12.0,91,0.00,,,0.00,Wunderground v.1.15,2013-05-04 07:39:00,
2013-05-04 02:44:00,45.1,42.6,29.95,NNW,347,3.0,8.0,91,0.00,,,0.00,Wunderground v.1.15,2013-05-04 07:44:00,
2013-05-04 02:49:00,45.0,42.5,29.95,NNW,338,6.0,13.0,91,0.00,,,0.00,Wunderground v.1.15,2013-05-04 07:49:00,
2013-05-04 02:54:00,45.0,42.5,29.95,NW,324,2.0,11.0,91,0.00,,,0.00,Wunderground v.1.15,2013-05-04 07:54:00,
2013-05-04 02:59:00,44.9,42.4,29.95,WNW,290,2.0,11.0,91,0.00,,,0.00,Wunderground v.1.15,2013-05-04 07:59:00,
2013-05-04 03:04:00,44.8,42.3,29.95,NW,305,4.0,11.0,91,0.00,,,0.00,Wunderground v.1.15,2013-05-04 08:04:00,
2013-05-04 03:09:00,44.7,42.2,29.95,NNW,334,6.0,12.0,91,0.00,,,0.00,Wunderground v.1.15,2013-05-04 08:09:00,
2013-05-04 03:14:00,44.7,42.2,29.95,NNW,348,12.0,13.0,91,0.00,,,0.00,Wunderground v.1.15,2013-05-04 08:14:00,
2013-05-04 03:19:00,44.7,42.5,29.95,NNW,327,5.0,13.0,92,0.00,,,0.00,Wunderground v.1.15,2013-05-04 08:19:00,
2013-05-04 03:24:00,44.7,42.5,29.95,NNW,338,6.0,12.0,92,0.00,,,0.00,Wunderground v.1.15,2013-05-04 08:24:00,
2013-05-04 03:29:00,44.6,42.4,29.96,NNW,328,7.0,12.0,92,0.00,,,0.00,Wunderground v.1.15,2013-05-04 08:29:00,
2013-05-04 03:34:00,44.6,42.4,29.95,NNW,339,7.0,10.0,92,0.00,,,0.00,Wunderground v.1.15,2013-05-04 08:34:00,
2013-05-04 03:39:00,44.4,42.2,29.95,NW,325,8.0,11.0,92,0.00,,,0.00,Wunderground v.1.15,2013-05-04 08:39:00,
2013-05-04 03:44:00,44.3,42.1,29.95,NNW,341,3.0,10.0,92,0.00,,,0.00,Wunderground v.1.15,2013-05-04 08:44:00,
2013-05-04 03:49:00,44.2,42.0,29.95,WNW,290,5.0,10.0,92,0.00,,,0.00,Wunderground v.1.15,2013-05-04 08:49:00,
2013-05-04 03:54:00,44.2,42.0,29.95,WNW,293,6.0,9.0,92,0.00,,,0.00,Wunderground v.1.15,2013-05-04 08:54:00,
2013-05-04 03:59:00,44.1,41.9,29.95,NNW,332,6.0,10.0,92,0.00,,,0.00,Wunderground v.1.15,2013-05-04 08:59:00,
2013-05-04 04:04:00,44.0,41.8,29.95,NNW,330,6.0,7.0,92,0.00,,,0.00,Wunderground v.1.15,2013-05-04 09:04:00,
2013-05-04 04:09:00,43.9,41.7,29.95,North,358,6.0,8.0,92,0.00,,,0.00,Wunderground v.1.15,2013-05-04 09:09:00,
2013-05-04 04:14:00,43.9,41.7,29.95,NNW,342,3.0,11.0,92,0.00,,,0.00,Wunderground v.1.15,2013-05-04 09:14:00,
2013-05-04 04:19:00,43.9,41.7,29.95,NNW,342,7.0,11.0,92,0.00,,,0.00,Wunderground v.1.15,2013-05-04 09:19:00,
2013-05-04 04:24:00,43.8,41.6,29.95,NNW,336,4.0,10.0,92,0.00,,,0.00,Wunderground v.1.15,2013-05-04 09:24:00,
2013-05-04 04:29:00,43.7,41.5,29.95,NNW,330,3.0,10.0,92,0.00,,,0.00,Wunderground v.1.15,2013-05-04 09:29:00,
2013-05-04 04:34:00,43.7,41.8,29.95,NW,305,2.0,7.0,93,0.00,,,0.00,Wunderground v.1.15,2013-05-04 09:34:00,
2013-05-04 04:39:00,43.6,41.7,29.95,NW,322,2.0,8.0,93,0.00,,,0.00,Wunderground v.1.15,2013-05-04 09:39:00,
2013-05-04 04:44:00,43.6,41.7,29.96,NW,309,2.0,7.0,93,0.00,,,0.00,Wunderground v.1.15,2013-05-04 09:44:00,
2013-05-04 04:49:00,43.5,41.6,29.96,NW,324,4.0,10.0,93,0.00,,,0.00,Wunderground v.1.15,2013-05-04 09:49:00,
2013-05-04 04:54:00,43.5,41.6,29.96,NW,312,3.0,9.0,93,0.00,,,0.00,Wunderground v.1.15,2013-05-04 09:54:00,
2013-05-04 04:59:00,43.6,41.7,29.97,NW,324,4.0,9.0,93,0.00,,,0.00,Wunderground v.1.15,2013-05-04 09:59:00,
2013-05-04 05:05:00,43.5,41.6,29.97,NNW,327,5.0,5.0,93,0.00,,,0.00,Wunderground v.1.15,2013-05-04 10:05:00,
2013-05-04 05:10:00,43.5,41.6,29.97,NNW,340,2.0,3.0,93,0.00,,,0.00,Wunderground v.1.15,2013-05-04 10:10:00,
2013-05-04 05:15:00,43.5,41.6,29.97,NNW,338,2.0,5.0,93,0.00,,,0.00,Wunderground v.1.15,2013-05-04 10:15:00,
2013-05-04 05:20:00,43.5,41.6,29.97,NNW,338,3.0,3.0,93,0.00,,,0.00,Wunderground v.1.15,2013-05-04 10:20:00,
2013-05-04 05:25:00,43.5,41.6,29.97,NW,322,3.0,7.0,93,0.00,,,0.00,Wunderground v.1.15,2013-05-04 10:25:00,
2013-05-04 05:30:00,43.4,41.5,29.97,NNW,328,3.0,4.0,93,0.00,,,0.00,Wunderground v.1.15,2013-05-04 10:30:00,
2013-05-04 05:35:00,43.4,41.5,29.96,NNW,338,4.0,7.0,93,0.00,,,0.00,Wunderground v.1.15,2013-05-04 10:35:00,
2013-05-04 05:40:00,43.5,41.6,29.96,NW,324,5.0,6.0,93,0.00,,,0.00,Wunderground v.1.15,2013-05-04 10:40:00,
2013-05-04 05:45:00,43.5,41.6,29.96,NNW,347,4.0,6.0,93,0.00,,,0.00,Wunderground v.1.15,2013-05-04 10:45:00,
2013-05-04 05:50:00,43.5,41.6,29.96,NW,321,4.0,4.0,93,0.00,,,0.00,Wunderground v.1.15,2013-05-04 10:50:00,
2013-05-04 05:55:00,43.4,41.5,29.96,NNW,335,5.0,8.0,93,0.00,,,0.00,Wunderground v.1.15,2013-05-04 10:55:00,
2013-05-04 06:00:00,43.4,41.5,29.96,NW,323,3.0,4.0,93,0.00,,,0.00,Wunderground v.1.15,2013-05-04 11:00:00,
2013-05-04 06:05:00,43.3,41.4,29.96,North,6,3.0,7.0,93,0.00,,,0.00,Wunderground v.1.15,2013-05-04 11:05:00,
2013-05-04 06:10:00,43.1,41.2,29.97,NNW,328,2.0,3.0,93,0.00,,,0.00,Wunderground v.1.15,2013-05-04 11:10:00,
2013-05-04 06:15:00,43.0,41.1,29.97,NW,319,5.0,7.0,93,0.00,,,0.00,Wunderground v.1.15,2013-05-04 11:15:00,
2013-05-04 06:20:00,43.0,41.4,29.97,NNW,347,5.0,5.0,94,0.00,,,0.00,Wunderground v.1.15,2013-05-04 11:20:00,
2013-05-04 06:25:00,43.1,41.5,29.98,NW,310,3.0,6.0,94,0.00,,,0.00,Wunderground v.1.15,2013-05-04 11:25:00,
2013-05-04 06:30:00,43.3,41.7,29.98,NW,322,2.0,3.0,94,0.00,,,0.00,Wunderground v.1.15,2013-05-04 11:30:00,
2013-05-04 06:35:00,43.7,42.1,29.98,NW,314,4.0,6.0,94,0.00,,,0.00,Wunderground v.1.15,2013-05-04 11:35:00,
2013-05-04 06:40:00,43.9,42.3,29.98,NW,315,4.0,4.0,94,0.00,,,0.00,Wunderground v.1.15,2013-05-04 11:40:00,
2013-05-04 06:45:00,44.4,42.5,29.99,NW,322,3.0,8.0,93,0.00,,,0.00,Wunderground v.1.15,2013-05-04 11:45:00,
2013-05-04 06:50:00,44.7,42.8,29.99,NW,326,3.0,4.0,93,0.00,,,0.00,Wunderground v.1.15,2013-05-04 11:50:00,
2013-05-04 06:55:00,45.1,42.9,29.99,NW,311,2.0,7.0,92,0.00,,,0.00,Wunderground v.1.15,2013-05-04 11:55:00,
2013-05-04 07:00:00,45.3,43.1,29.99,WNW,287,2.0,3.0,92,0.00,,,0.00,Wunderground v.1.15,2013-05-04 12:00:00,
2013-05-04 07:05:00,45.7,43.2,29.99,NW,319,2.0,5.0,91,0.00,,,0.00,Wunderground v.1.15,2013-05-04 12:05:00,
2013-05-04 07:10:00,45.9,43.4,30.00,NNW,348,5.0,5.0,91,0.00,,,0.00,Wunderground v.1.15,2013-05-04 12:10:00,
2013-05-04 07:16:00,46.0,43.2,29.99,NW,325,6.0,6.0,90,0.00,,,0.00,Wunderground v.1.15,2013-05-04 12:16:00,
2013-05-04 07:23:00,46.3,43.2,29.99,WNW,288,4.0,6.0,89,0.00,,,0.00,Wunderground v.1.15,2013-05-04 12:23:00,
2013-05-04 07:28:00,46.4,43.3,30.00,NNW,328,4.0,6.0,89,0.00,,,0.00,Wunderground v.1.15,2013-05-04 12:28:00,
2013-05-04 07:33:00,46.4,43.0,30.00,NW,325,4.0,7.0,88,0.00,,,0.00,Wunderground v.1.15,2013-05-04 12:33:00,
2013-05-04 07:38:00,46.5,42.8,30.00,WNW,302,5.0,7.0,87,0.00,,,0.00,Wunderground v.1.15,2013-05-04 12:38:00,
2013-05-04 07:43:00,46.5,42.8,29.99,NW,324,4.0,7.0,87,0.00,,,0.00,Wunderground v.1.15,2013-05-04 12:43:00,
2013-05-04 07:48:00,46.7,42.7,29.99,WNW,302,3.0,7.0,86,0.00,,,0.00,Wunderground v.1.15,2013-05-04 12:48:00,
2013-05-04 07:53:00,46.9,43.2,29.99,NNW,330,6.0,6.0,87,0.00,,,0.00,Wunderground v.1.15,2013-05-04 12:53:00,
2013-05-04 07:58:00,47.2,43.2,29.99,NNW,338,3.0,7.0,86,0.00,,,0.00,Wunderground v.1.15,2013-05-04 12:58:00,
2013-05-04 08:03:00,47.7,43.1,29.99,NNW,346,3.0,6.0,84,0.00,,,0.00,Wunderground v.1.15,2013-05-04 13:03:00,
2013-05-04 08:08:00,48.1,43.2,29.99,North,350,4.0,7.0,83,0.00,,,0.00,Wunderground v.1.15,2013-05-04 13:08:00,
2013-05-04 08:13:00,48.6,43.7,29.99,NW,312,5.0,5.0,83,0.00,,,0.00,Wunderground v.1.15,2013-05-04 13:13:00,
2013-05-04 08:18:00,49.1,43.5,29.99,NNW,330,4.0,7.0,81,0.00,,,0.00,Wunderground v.1.15,2013-05-04 13:18:00,
2013-05-04 08:23:00,49.6,43.4,30.00,NNE,20,4.0,6.0,79,0.00,,,0.00,Wunderground v.1.15,2013-05-04 13:23:00,
2013-05-04 08:28:00,50.3,44.0,30.00,NNW,333,3.0,6.0,79,0.00,,,0.00,Wunderground v.1.15,2013-05-04 13:28:00,
2013-05-04 08:33:00,50.7,43.4,30.00,NW,315,4.0,10.0,76,0.00,,,0.00,Wunderground v.1.15,2013-05-04 13:33:00,
2013-05-04 08:39:00,51.1,43.4,30.00,NE,47,4.0,10.0,75,0.00,,,0.00,Wunderground v.1.15,2013-05-04 13:39:00,
2013-05-04 08:43:00,51.5,43.5,30.00,NNW,333,3.0,7.0,74,0.00,,,0.00,Wunderground v.1.15,2013-05-04 13:43:00,
2013-05-04 08:48:00,52.0,44.0,30.00,NNE,18,5.0,7.0,74,0.00,,,0.00,Wunderground v.1.15,2013-05-04 13:48:00,
2013-05-04 08:53:00,52.3,43.5,30.00,NNW,335,8.0,9.0,72,0.00,,,0.00,Wunderground v.1.15,2013-05-04 13:53:00,
2013-05-04 08:58:00,52.4,43.6,30.00,NW,324,6.0,9.0,72,0.00,,,0.00,Wunderground v.1.15,2013-05-04 13:58:00,
2013-05-04 09:03:00,52.5,43.4,30.00,NW,309,3.0,10.0,71,0.00,,,0.00,Wunderground v.1.15,2013-05-04 14:03:00,
2013-05-04 09:08:00,52.9,43.7,30.00,NNE,15,6.0,10.0,71,0.00,,,0.00,Wunderground v.1.15,2013-05-04 14:08:00,
2013-05-04 09:13:00,53.2,44.0,30.00,West,281,5.0,9.0,71,0.00,,,0.00,Wunderground v.1.15,2013-05-04 14:13:00,
2013-05-04 09:18:00,53.5,44.0,30.00,NNW,328,2.0,9.0,70,0.00,,,0.00,Wunderground v.1.15,2013-05-04 14:18:00,
2013-05-04 09:23:00,53.9,44.3,29.99,NNW,338,5.0,9.0,70,0.00,,,0.00,Wunderground v.1.15,2013-05-04 14:23:00,
2013-05-04 09:28:00,54.3,44.0,29.99,NNE,22,5.0,10.0,68,0.00,,,0.00,Wunderground v.1.15,2013-05-04 14:28:00,
2013-05-04 09:33:00,54.7,44.3,29.99,NW,325,4.0,11.0,68,0.00,,,0.00,Wunderground v.1.15,2013-05-04 14:33:00,
2013-05-04 09:39:00,55.0,44.2,29.99,NNW,329,7.0,12.0,67,0.00,,,0.00,Wunderground v.1.15,2013-05-04 14:39:00,
2013-05-04 09:44:00,55.4,44.6,29.99,NNW,328,6.0,8.0,67,0.00,,,0.00,Wunderground v.1.15,2013-05-04 14:44:00,
2013-05-04 09:49:00,55.5,45.1,30.00,NW,326,5.0,11.0,68,0.00,,,0.00,Wunderground v.1.15,2013-05-04 14:49:00,
2013-05-04 09:54:00,55.9,45.5,29.99,NNW,328,8.0,8.0,68,0.00,,,0.00,Wunderground v.1.15,2013-05-04 14:54:00,
2013-05-04 09:58:00,56.1,44.5,29.99,North,360,4.0,10.0,65,0.00,,,0.00,Wunderground v.1.15,2013-05-04 14:58:00,
2013-05-04 10:03:00,56.5,44.9,29.99,North,11,4.0,8.0,65,0.00,,,0.00,Wunderground v.1.15,2013-05-04 15:03:00,
2013-05-04 10:09:00,56.6,44.6,29.99,NNW,338,4.0,8.0,64,0.00,,,0.00,Wunderground v.1.15,2013-05-04 15:09:00,
2013-05-04 10:14:00,57.0,44.9,29.99,NNW,342,2.0,10.0,64,0.00,,,0.00,Wunderground v.1.15,2013-05-04 15:14:00,
2013-05-04 10:19:00,57.4,45.3,29.99,NNW,330,2.0,10.0,64,0.00,,,0.00,Wunderground v.1.15,2013-05-04 15:19:00,
2013-05-04 10:24:00,58.0,45.5,29.98,North,9,4.0,8.0,63,0.00,,,0.00,Wunderground v.1.15,2013-05-04 15:24:00,
2013-05-04 10:29:00,58.5,43.8,29.99,North,6,5.0,10.0,58,0.00,,,0.00,Wunderground v.1.15,2013-05-04 15:29:00,
2013-05-04 10:34:00,58.7,44.8,29.99,North,354,4.0,11.0,60,0.00,,,0.00,Wunderground v.1.15,2013-05-04 15:34:00,
2013-05-04 10:39:00,58.9,44.6,29.98,NNE,29,4.0,11.0,59,0.00,,,0.00,Wunderground v.1.15,2013-05-04 15:39:00,
2013-05-04 10:44:00,59.4,45.1,29.99,NNW,335,4.0,7.0,59,0.00,,,0.00,Wunderground v.1.15,2013-05-04 15:44:00,
2013-05-04 10:49:00,59.4,44.2,29.98,West,278,8.0,11.0,57,0.00,,,0.00,Wunderground v.1.15,2013-05-04 15:49:00,
2013-05-04 10:54:00,59.7,45.8,29.98,NNW,335,6.0,8.0,60,0.00,,,0.00,Wunderground v.1.15,2013-05-04 15:54:00,
2013-05-04 10:59:00,60.5,43.3,29.98,NW,321,4.0,8.0,53,0.00,,,0.00,Wunderground v.1.15,2013-05-04 15:59:00,
2013-05-04 11:04:00,61.4,45.1,29.98,WNW,285,5.0,10.0,55,0.00,,,0.00,Wunderground v.1.15,2013-05-04 16:04:00,
2013-05-04 11:09:00,61.7,43.9,29.98,NW,326,7.0,10.0,52,0.00,,,0.00,Wunderground v.1.15,2013-05-04 16:09:00,
2013-05-04 11:14:00,62.0,42.6,29.98,NW,325,7.0,12.0,49,0.00,,,0.00,Wunderground v.1.15,2013-05-04 16:14:00,
2013-05-04 11:19:00,61.9,42.0,29.98,NW,312,4.0,14.0,48,0.00,,,0.00,Wunderground v.1.15,2013-05-04 16:19:00,
2013-05-04 11:24:00,62.4,43.5,29.98,NW,309,5.0,13.0,50,0.00,,,0.00,Wunderground v.1.15,2013-05-04 16:24:00,
2013-05-04 11:29:00,62.0,40.4,29.98,NNW,336,6.0,14.0,45,0.00,,,0.00,Wunderground v.1.15,2013-05-04 16:29:00,
2013-05-04 11:34:00,62.1,39.9,29.98,NW,306,8.0,15.0,44,0.00,,,0.00,Wunderground v.1.15,2013-05-04 16:34:00,
2013-05-04 11:39:00,62.1,41.6,29.98,WNW,302,5.0,16.0,47,0.00,,,0.00,Wunderground v.1.15,2013-05-04 16:39:00,
2013-05-04 11:44:00,62.9,41.8,29.97,NNW,344,7.0,13.0,46,0.00,,,0.00,Wunderground v.1.15,2013-05-04 16:44:00,
2013-05-04 11:49:00,63.2,40.3,29.97,NNW,333,13.0,13.0,43,0.00,,,0.00,Wunderground v.1.15,2013-05-04 16:49:00,
2013-05-04 11:54:00,63.5,40.0,29.97,North,6,7.0,14.0,42,0.00,,,0.00,Wunderground v.1.15,2013-05-04 16:54:00,
2013-05-04 11:59:00,63.7,38.3,29.97,NW,322,11.0,15.0,39,0.00,,,0.00,Wunderground v.1.15,2013-05-04 16:59:00,
2013-05-04 12:04:00,63.9,41.5,29.96,NW,324,8.0,15.0,44,0.00,,,0.00,Wunderground v.1.15,2013-05-04 17:04:00,
2013-05-04 12:09:00,64.3,39.4,29.96,NW,309,13.0,16.0,40,0.00,,,0.00,Wunderground v.1.15,2013-05-04 17:09:00,
2013-05-04 12:14:00,64.1,38.0,29.96,NNW,334,13.0,16.0,38,0.00,,,0.00,Wunderground v.1.15,2013-05-04 17:14:00,
2013-05-04 12:19:00,64.1,38.0,29.96,NW,321,10.0,11.0,38,0.00,,,0.00,Wunderground v.1.15,2013-05-04 17:19:00,
2013-05-04 12:24:00,64.6,39.1,29.96,NNW,338,9.0,14.0,39,0.00,,,0.00,Wunderground v.1.15,2013-05-04 17:24:00,
2013-05-04 12:29:00,64.8,37.2,29.96,WNW,284,6.0,9.0,36,0.00,,,0.00,Wunderground v.1.15,2013-05-04 17:29:00,
2013-05-04 12:34:00,64.8,37.9,29.96,NNW,338,8.0,23.0,37,0.00,,,0.00,Wunderground v.1.15,2013-05-04 17:34:00,
2013-05-04 12:39:00,65.0,37.4,29.96,WNW,295,8.0,10.0,36,0.00,,,0.00,Wunderground v.1.15,2013-05-04 17:39:00,
2013-05-04 12:44:00,65.2,39.6,29.95,NW,326,9.0,17.0,39,0.00,,,0.00,Wunderground v.1.15,2013-05-04 17:44:00,
2013-05-04 12:49:00,65.7,39.4,29.95,NNW,343,10.0,17.0,38,0.00,,,0.00,Wunderground v.1.15,2013-05-04 17:49:00,
2013-05-04 12:55:00,65.9,40.2,29.95,NW,314,12.0,15.0,39,0.00,,,0.00,Wunderground v.1.15,2013-05-04 17:55:00,
2013-05-04 13:00:00,65.6,40.0,29.95,NNW,335,6.0,10.0,39,0.00,,,0.00,Wunderground v.1.15,2013-05-04 18:00:00,
2013-05-04 13:05:00,65.7,40.1,29.95,West,270,9.0,14.0,39,0.00,,,0.00,Wunderground v.1.15,2013-05-04 18:05:00,
2013-05-04 13:10:00,66.0,39.0,29.95,NNW,343,9.0,12.0,37,0.00,,,0.00,Wunderground v.1.15,2013-05-04 18:10:00,
2013-05-04 13:15:00,65.9,37.5,29.94,NNW,343,6.0,19.0,35,0.00,,,0.00,Wunderground v.1.15,2013-05-04 18:15:00,
2013-05-04 13:20:00,66.4,37.2,29.94,NW,323,13.0,13.0,34,0.00,,,0.00,Wunderground v.1.15,2013-05-04 18:20:00,
2013-05-04 13:25:00,66.3,36.3,29.94,NNW,343,12.0,18.0,33,0.00,,,0.00,Wunderground v.1.15,2013-05-04 18:25:00,
2013-05-04 13:30:00,66.3,37.1,29.94,NW,322,10.0,11.0,34,0.00,,,0.00,Wunderground v.1.15,2013-05-04 18:30:00,
2013-05-04 13:35:00,66.6,37.3,29.94,NW,319,16.0,19.0,34,0.00,,,0.00,Wunderground v.1.15,2013-05-04 18:35:00,
2013-05-04 13:39:00,66.4,39.3,29.93,NNW,330,6.0,9.0,37,0.00,,,0.00,Wunderground v.1.15,2013-05-04 18:39:00,
2013-05-04 13:44:00,66.6,38.1,29.93,NNW,330,5.0,17.0,35,0.00,,,0.00,Wunderground v.1.15,2013-05-04 18:44:00,
2013-05-04 13:50:00,67.0,39.1,29.93,NNW,328,5.0,8.0,36,0.00,,,0.00,Wunderground v.1.15,2013-05-04 18:50:00,
2013-05-04 13:55:00,67.1,39.9,29.93,NNW,345,3.0,17.0,37,0.00,,,0.00,Wunderground v.1.15,2013-05-04 18:55:00,
2013-05-04 14:00:00,67.6,41.7,29.93,NNW,333,5.0,7.0,39,0.00,,,0.00,Wunderground v.1.15,2013-05-04 19:00:00,
2013-05-04 14:05:00,67.2,38.6,29.93,West,274,6.0,17.0,35,0.00,,,0.00,Wunderground v.1.15,2013-05-04 19:05:00,
2013-05-04 14:09:00,67.5,42.3,29.92,WNW,297,5.0,8.0,40,0.00,,,0.00,Wunderground v.1.15,2013-05-04 19:09:00,
2013-05-04 14:14:00,67.6,40.4,29.92,NW,319,9.0,13.0,37,0.00,,,0.00,Wunderground v.1.15,2013-05-04 19:14:00,
2013-05-04 14:19:00,67.5,41.0,29.92,NNW,342,12.0,12.0,38,0.00,,,0.00,Wunderground v.1.15,2013-05-04 19:19:00,
2013-05-04 14:24:00,67.5,41.0,29.92,NNW,337,6.0,13.0,38,0.00,,,0.00,Wunderground v.1.15,2013-05-04 19:24:00,
2013-05-04 14:29:00,67.3,39.4,29.92,NW,324,10.0,10.0,36,0.00,,,0.00,Wunderground v.1.15,2013-05-04 19:29:00,
2013-05-04 14:34:00,67.2,40.0,29.92,WNW,302,8.0,12.0,37,0.00,,,0.00,Wunderground v.1.15,2013-05-04 19:34:00,
2013-05-04 14:39:00,67.5,40.3,29.91,WNW,294,10.0,10.0,37,0.00,,,0.00,Wunderground v.1.15,2013-05-04 19:39:00,
2013-05-04 14:44:00,67.4,38.8,29.91,WNW,285,9.0,19.0,35,0.00,,,0.00,Wunderground v.1.15,2013-05-04 19:44:00,
2013-05-04 14:49:00,67.5,40.3,29.91,NNW,334,5.0,10.0,37,0.00,,,0.00,Wunderground v.1.15,2013-05-04 19:49:00,
2013-05-04 14:54:00,68.0,40.0,29.91,NW,324,5.0,13.0,36,0.00,,,0.00,Wunderground v.1.15,2013-05-04 19:54:00,
2013-05-04 14:59:00,68.0,40.7,29.91,NNW,330,7.0,8.0,37,0.00,,,0.00,Wunderground v.1.15,2013-05-04 19:59:00,
2013-05-04 15:04:00,68.1,38.7,29.91,NW,322,7.0,14.0,34,0.00,,,0.00,Wunderground v.1.15,2013-05-04 20:04:00,
2013-05-04 15:09:00,68.3,40.3,29.90,WNW,300,13.0,13.0,36,0.00,,,0.00,Wunderground v.1.15,2013-05-04 20:09:00,
2013-05-04 15:14:00,68.6,42.0,29.90,NW,320,6.0,13.0,38,0.00,,,0.00,Wunderground v.1.15,2013-05-04 20:14:00,
2013-05-04 15:19:00,68.3,40.3,29.90,WNW,285,9.0,9.0,36,0.00,,,0.00,Wunderground v.1.15,2013-05-04 20:19:00,
2013-05-04 15:25:00,68.0,39.3,29.90,NNW,330,7.0,11.0,35,0.00,,,0.00,Wunderground v.1.15,2013-05-04 20:25:00,
2013-05-04 15:30:00,68.2,41.6,29.89,NW,318,10.0,10.0,38,0.00,,,0.00,Wunderground v.1.15,2013-05-04 20:30:00,
2013-05-04 15:35:00,68.2,40.2,29.89,WNW,296,9.0,12.0,36,0.00,,,0.00,Wunderground v.1.15,2013-05-04 20:35:00,
2013-05-04 15:40:00,68.6,41.3,29.89,West,269,8.0,11.0,37,0.00,,,0.00,Wunderground v.1.15,2013-05-04 20:40:00,
2013-05-04 15:45:00,68.8,40.7,29.89,NW,316,7.0,11.0,36,0.00,,,0.00,Wunderground v.1.15,2013-05-04 20:45:00,
2013-05-04 15:50:00,69.0,44.3,29.89,WNW,300,8.0,9.0,41,0.00,,,0.00,Wunderground v.1.15,2013-05-04 20:50:00,
2013-05-04 15:55:00,69.0,41.6,29.89,WNW,294,12.0,12.0,37,0.00,,,0.00,Wunderground v.1.15,2013-05-04 20:55:00,
2013-05-04 16:00:00,68.8,41.5,29.89,NW,307,6.0,7.0,37,0.00,,,0.00,Wunderground v.1.15,2013-05-04 21:00:00,
2013-05-04 16:05:00,68.6,39.8,29.88,West,278,3.0,9.0,35,0.00,,,0.00,Wunderground v.1.15,2013-05-04 21:05:00,
2013-05-04 16:10:00,69.2,41.8,29.88,NW,321,4.0,8.0,37,0.00,,,0.00,Wunderground v.1.15,2013-05-04 21:10:00,
2013-05-04 16:15:00,69.1,41.0,29.88,West,277,3.0,8.0,36,0.00,,,0.00,Wunderground v.1.15,2013-05-04 21:15:00,
2013-05-04 16:20:00,69.1,42.4,29.88,NW,315,5.0,8.0,38,0.00,,,0.00,Wunderground v.1.15,2013-05-04 21:20:00,
2013-05-04 16:25:00,69.2,42.5,29.88,WNW,292,3.0,10.0,38,0.00,,,0.00,Wunderground v.1.15,2013-05-04 21:25:00,
2013-05-04 16:30:00,69.3,40.5,29.88,North,352,6.0,6.0,35,0.00,,,0.00,Wunderground v.1.15,2013-05-04 21:30:00,
2013-05-04 16:35:00,69.1,43.1,29.88,WNW,294,6.0,7.0,39,0.00,,,0.00,Wunderground v.1.15,2013-05-04 21:35:00,
2013-05-04 16:40:00,69.0,40.2,29.88,WNW,301,2.0,5.0,35,0.00,,,0.00,Wunderground v.1.15,2013-05-04 21:40:00,
2013-05-04 16:45:00,69.1,40.3,29.88,WNW,291,6.0,9.0,35,0.00,,,0.00,Wunderground v.1.15,2013-05-04 21:45:00,
2013-05-04 16:50:00,68.9,40.8,29.87,WNW,285,5.0,7.0,36,0.00,,,0.00,Wunderground v.1.15,2013-05-04 21:50:00,
2013-05-04 16:55:00,69.0,42.3,29.87,WNW,297,5.0,10.0,38,0.00,,,0.00,Wunderground v.1.15,2013-05-04 21:55:00,
2013-05-04 17:00:00,69.4,41.3,29.87,NNW,328,2.0,4.0,36,0.00,,,0.00,Wunderground v.1.15,2013-05-04 22:00:00,
2013-05-04 17:05:00,69.8,42.3,29.87,West,270,0.0,5.0,37,0.00,,,0.00,Wunderground v.1.15,2013-05-04 22:05:00,
2013-05-04 17:10:00,69.6,42.2,29.87,WNW,291,6.0,6.0,37,0.00,,,0.00,Wunderground v.1.15,2013-05-04 22:10:00,
2013-05-04 17:15:00,69.7,41.5,29.87,WNW,283,2.0,6.0,36,0.00,,,0.00,Wunderground v.1.15,2013-05-04 22:15:00,
2013-05-04 17:20:00,69.8,40.9,29.87,NW,304,5.0,6.0,35,0.00,,,0.00,Wunderground v.1.15,2013-05-04 22:20:00,
2013-05-04 17:25:00,69.8,41.6,29.87,NW,309,1.0,7.0,36,0.00,,,0.00,Wunderground v.1.15,2013-05-04 22:25:00,
2013-05-04 17:30:00,70.0,41.8,29.87,West,272,5.0,6.0,36,0.00,,,0.00,Wunderground v.1.15,2013-05-04 22:30:00,
2013-05-04 17:35:00,69.8,43.0,29.86,NW,318,2.0,6.0,38,0.00,,,0.00,Wunderground v.1.15,2013-05-04 22:35:00,
2013-05-04 17:40:00,69.7,41.5,29.86,NNE,29,1.0,3.0,36,0.00,,,0.00,Wunderground v.1.15,2013-05-04 22:40:00,
2013-05-04 17:45:00,69.7,41.5,29.87,North,350,2.0,6.0,36,0.00,,,0.00,Wunderground v.1.15,2013-05-04 22:45:00,
2013-05-04 17:50:00,69.7,41.5,29.86,West,270,3.0,4.0,36,0.00,,,0.00,Wunderground v.1.15,2013-05-04 22:50:00,
2013-05-04 17:55:00,69.9,42.4,29.87,WNW,294,4.0,5.0,37,0.00,,,0.00,Wunderground v.1.15,2013-05-04 22:55:00,
2013-05-04 18:00:00,69.5,41.4,29.87,WNW,300,5.0,5.0,36,0.00,,,0.00,Wunderground v.1.15,2013-05-04 23:00:00,
2013-05-04 18:05:00,69.4,42.0,29.87,WNW,285,2.0,6.0,37,0.00,,,0.00,Wunderground v.1.15,2013-05-04 23:05:00,
2013-05-04 18:10:00,69.4,45.3,29.87,SSW,203,2.0,4.0,42,0.00,,,0.00,Wunderground v.1.15,2013-05-04 23:10:00,
2013-05-04 18:15:00,69.4,49.4,29.87,ESE,115,2.0,7.0,49,0.00,,,0.00,Wunderground v.1.15,2013-05-04 23:15:00,
2013-05-04 18:20:00,69.0,48.5,29.87,WNW,285,4.0,6.0,48,0.00,,,0.00,Wunderground v.1.15,2013-05-04 23:20:00,
2013-05-04 18:26:00,68.3,48.9,29.87,WNW,284,3.0,8.0,50,0.00,,,0.00,Wunderground v.1.15,2013-05-04 23:26:00,
2013-05-04 18:31:00,68.2,49.4,29.87,West,269,6.0,6.0,51,0.00,,,0.00,Wunderground v.1.15,2013-05-04 23:31:00,
2013-05-04 18:36:00,68.0,49.2,29.87,West,259,2.0,7.0,51,0.00,,,0.00,Wunderground v.1.15,2013-05-04 23:36:00,
2013-05-04 18:41:00,67.9,48.6,29.87,West,281,3.0,7.0,50,0.00,,,0.00,Wunderground v.1.15,2013-05-04 23:41:00,
2013-05-04 18:46:00,67.7,48.9,29.87,WSW,255,9.0,10.0,51,0.00,,,0.00,Wunderground v.1.15,2013-05-04 23:46:00,
2013-05-04 18:51:00,67.4,48.1,29.87,WSW,246,3.0,6.0,50,0.00,,,0.00,Wunderground v.1.15,2013-05-04 23:51:00,
2013-05-04 18:56:00,67.3,47.5,29.87,SW,232,2.0,8.0,49,0.00,,,0.00,Wunderground v.1.15,2013-05-04 23:56:00,
2013-05-04 19:01:00,67.0,47.2,29.87,WSW,253,4.0,7.0,49,0.00,,,0.00,Wunderground v.1.15,2013-05-05 00:01:00,
2013-05-04 19:06:00,66.7,46.9,29.87,SW,215,3.0,7.0,49,0.00,,,0.00,Wunderground v.1.15,2013-05-05 00:06:00,
2013-05-04 19:11:00,66.4,47.2,29.87,West,281,7.0,7.0,50,0.00,,,0.00,Wunderground v.1.15,2013-05-05 00:11:00,
2013-05-04 19:16:00,66.0,46.8,29.88,WNW,284,3.0,8.0,50,0.00,,,0.00,Wunderground v.1.15,2013-05-05 00:16:00,
2013-05-04 19:21:00,65.6,46.5,29.88,West,268,3.0,7.0,50,0.00,,,0.00,Wunderground v.1.15,2013-05-05 00:21:00,
2013-05-04 19:26:00,65.2,46.6,29.88,West,268,3.0,7.0,51,0.00,,,0.00,Wunderground v.1.15,2013-05-05 00:26:00,
2013-05-04 19:31:00,64.8,46.8,29.88,West,268,3.0,4.0,52,0.00,,,0.00,Wunderground v.1.15,2013-05-05 00:31:00,
2013-05-04 19:36:00,64.4,46.4,29.88,West,263,2.0,6.0,52,0.00,,,0.00,Wunderground v.1.15,2013-05-05 00:36:00,
2013-05-04 19:41:00,64.1,46.6,29.88,West,266,2.0,4.0,53,0.00,,,0.00,Wunderground v.1.15,2013-05-05 00:41:00,
2013-05-04 19:46:00,63.8,46.8,29.88,SW,235,1.0,5.0,54,0.00,,,0.00,Wunderground v.1.15,2013-05-05 00:46:00,
2013-05-04 19:51:00,63.5,46.6,29.88,West,271,2.0,3.0,54,0.00,,,0.00,Wunderground v.1.15,2013-05-05 00:51:00,
2013-05-04 19:56:00,63.3,46.9,29.88,West,274,1.0,3.0,55,0.00,,,0.00,Wunderground v.1.15,2013-05-05 00:56:00,
2013-05-04 20:01:00,63.2,46.8,29.88,West,280,1.0,1.0,55,0.00,,,0.00,Wunderground v.1.15,2013-05-05 01:01:00,
2013-05-04 20:06:00,63.0,46.6,29.89,WNW,283,1.0,3.0,55,0.00,,,0.00,Wunderground v.1.15,2013-05-05 01:06:00,
2013-05-04 20:11:00,62.8,46.9,29.89,West,276,0.0,1.0,56,0.00,,,0.00,Wunderground v.1.15,2013-05-05 01:11:00,
2013-05-04 20:16:00,62.5,47.1,29.89,West,274,1.0,1.0,57,0.00,,,0.00,Wunderground v.1.15,2013-05-05 01:16:00,
2013-05-04 20:21:00,62.3,46.9,29.89,West,269,1.0,1.0,57,0.00,,,0.00,Wunderground v.1.15,2013-05-05 01:21:00,
2013-05-04 20:26:00,62.2,46.8,29.89,West,272,1.0,2.0,57,0.00,,,0.00,Wunderground v.1.15,2013-05-05 01:26:00,
2013-05-04 20:31:00,62.0,47.0,29.89,West,273,1.0,1.0,58,0.00,,,0.00,Wunderground v.1.15,2013-05-05 01:31:00,
2013-05-04 20:36:00,61.9,47.0,29.89,West,274,1.0,2.0,58,0.00,,,0.00,Wunderground v.1.15,2013-05-05 01:36:00,
2013-05-04 20:41:00,61.8,46.9,29.90,West,273,0.0,1.0,58,0.00,,,0.00,Wunderground v.1.15,2013-05-05 01:41:00,
2013-05-04 20:46:00,61.7,46.8,29.90,West,273,1.0,1.0,58,0.00,,,0.00,Wunderground v.1.15,2013-05-05 01:46:00,
2013-05-04 20:51:00,61.5,47.0,29.90,West,274,0.0,0.0,59,0.00,,,0.00,Wunderground v.1.15,2013-05-05 01:51:00,
2013-05-04 20:56:00,61.3,46.8,29.90,West,274,0.0,1.0,59,0.00,,,0.00,Wunderground v.1.15,2013-05-05 01:56:00,
2013-05-04 21:01:00,61.0,46.6,29.90,West,274,0.0,0.0,59,0.00,,,0.00,Wunderground v.1.15,2013-05-05 02:01:00,
2013-05-04 21:06:00,60.5,46.5,29.91,West,274,0.0,1.0,60,0.00,,,0.00,Wunderground v.1.15,2013-05-05 02:06:00,
2013-05-04 21:11:00,60.5,47.0,29.91,WSW,248,1.0,1.0,61,0.00,,,0.00,Wunderground v.1.15,2013-05-05 02:11:00,
2013-05-04 21:16:00,61.1,47.5,29.91,WSW,253,1.0,2.0,61,0.00,,,0.00,Wunderground v.1.15,2013-05-05 02:16:00,
2013-05-04 21:21:00,61.3,47.3,29.91,West,259,0.0,3.0,60,0.00,,,0.00,Wunderground v.1.15,2013-05-05 02:21:00,
2013-05-04 21:26:00,61.7,47.2,29.91,West,272,1.0,3.0,59,0.00,,,0.00,Wunderground v.1.15,2013-05-05 02:26:00,
2013-05-04 21:31:00,62.2,47.7,29.91,WSW,253,2.0,5.0,59,0.00,,,0.00,Wunderground v.1.15,2013-05-05 02:31:00,
2013-05-04 21:36:00,62.5,48.9,29.91,WSW,239,2.0,6.0,61,0.00,,,0.00,Wunderground v.1.15,2013-05-05 02:36:00,
2013-05-04 21:41:00,63.6,50.3,29.91,SW,224,4.0,7.0,62,0.00,,,0.00,Wunderground v.1.15,2013-05-05 02:41:00,
2013-05-04 21:46:00,64.1,49.9,29.91,West,271,5.0,12.0,60,0.00,,,0.00,Wunderground v.1.15,2013-05-05 02:46:00,
2013-05-04 21:51:00,64.3,49.2,29.91,WSW,241,3.0,8.0,58,0.00,,,0.00,Wunderground v.1.15,2013-05-05 02:51:00,
2013-05-04 21:56:00,64.4,50.2,29.91,SE,138,1.0,15.0,60,0.00,,,0.00,Wunderground v.1.15,2013-05-05 02:56:00,
2013-05-04 22:01:00,64.4,50.2,29.91,SW,217,6.0,10.0,60,0.00,,,0.00,Wunderground v.1.15,2013-05-05 03:01:00,
2013-05-04 22:06:00,64.5,50.3,29.91,SW,215,2.0,11.0,60,0.00,,,0.00,Wunderground v.1.15,2013-05-05 03:06:00,
2013-05-04 22:11:00,64.5,51.2,29.92,WSW,245,5.0,9.0,62,0.00,,,0.00,Wunderground v.1.15,2013-05-05 03:11:00,
2013-05-04 22:16:00,64.4,51.1,29.91,SW,218,5.0,14.0,62,0.00,,,0.00,Wunderground v.1.15,2013-05-05 03:16:00,
2013-05-04 22:21:00,64.5,52.0,29.91,SSE,167,4.0,9.0,64,0.00,,,0.00,Wunderground v.1.15,2013-05-05 03:21:00,
2013-05-04 22:26:00,64.5,52.5,29.91,SW,235,7.0,15.0,65,0.00,,,0.00,Wunderground v.1.15,2013-05-05 03:26:00,
2013-05-04 22:31:00,64.5,53.3,29.90,South,190,6.0,9.0,67,0.00,,,0.00,Wunderground v.1.15,2013-05-05 03:31:00,
2013-05-04 22:36:00,64.4,52.8,29.90,SW,218,7.0,15.0,66,0.00,,,0.00,Wunderground v.1.15,2013-05-05 03:36:00,
2013-05-04 22:41:00,64.3,52.7,29.91,SSW,204,4.0,10.0,66,0.00,,,0.00,Wunderground v.1.15,2013-05-05 03:41:00,
2013-05-04 22:46:00,64.4,52.8,29.90,SSW,212,5.0,12.0,66,0.00,,,0.00,Wunderground v.1.15,2013-05-05 03:46:00,
2013-05-04 22:51:00,64.4,53.2,29.90,WSW,243,8.0,12.0,67,0.00,,,0.00,Wunderground v.1.15,2013-05-05 03:51:00,
2013-05-04 22:56:00,64.3,53.5,29.90,SSW,200,4.0,13.0,68,0.00,,,0.00,Wunderground v.1.15,2013-05-05 03:56:00,
2013-05-04 23:01:00,64.3,54.3,29.90,SE,146,2.0,9.0,70,0.00,,,0.00,Wunderground v.1.15,2013-05-05 04:01:00,
2013-05-04 23:06:00,64.1,54.5,29.90,WNW,294,3.0,10.0,71,0.00,,,0.00,Wunderground v.1.15,2013-05-05 04:06:00,
2013-05-04 23:11:00,64.1,52.1,29.90,WSW,245,4.0,12.0,65,0.00,,,0.00,Wunderground v.1.15,2013-05-05 04:11:00,
2013-05-04 23:16:00,64.0,52.0,29.90,WNW,283,1.0,12.0,65,0.00,,,0.00,Wunderground v.1.15,2013-05-05 04:16:00,
2013-05-04 23:21:00,64.0,52.0,29.90,SW,228,4.0,9.0,65,0.00,,,0.00,Wunderground v.1.15,2013-05-05 04:21:00,
2013-05-04 23:26:00,63.9,52.3,29.90,SW,224,4.0,9.0,66,0.00,,,0.00,Wunderground v.1.15,2013-05-05 04:26:00,
2013-05-04 23:31:00,63.7,51.7,29.90,West,270,4.0,8.0,65,0.00,,,0.00,Wunderground v.1.15,2013-05-05 04:31:00,
2013-05-04 23:36:00,63.6,52.4,29.90,South,191,2.0,9.0,67,0.00,,,0.00,Wunderground v.1.15,2013-05-05 04:36:00,
2013-05-04 23:41:00,63.5,51.5,29.90,West,273,4.0,10.0,65,0.00,,,0.00,Wunderground v.1.15,2013-05-05 04:41:00,
2013-05-04 23:46:00,63.5,51.9,29.90,West,267,3.0,10.0,66,0.00,,,0.00,Wunderground v.1.15,2013-05-05 04:46:00,
2013-05-04 23:51:00,63.4,52.2,29.90,West,279,3.0,9.0,67,0.00,,,0.00,Wunderground v.1.15,2013-05-05 04:51:00,
2013-05-04 23:56:00,63.3,52.2,29.90,West,280,2.0,12.0,67,0.00,,,0.00,Wunderground v.1.15,2013-05-05 04:56:00,